Weather History for KFAT - July, 2013

Change the Weather History Date:

Monday, July 22, 2013

  Actual Average Record
Temperature  
Mean Temperature 85 °F 84 °F  
Max Temperature 95 °F 99 °F 112 °F (2006)
Min Temperature 75 °F 68 °F 56 °F (1903)
Degree Days  
Heating Degree Days 0    
Month to date heating degree days 0  
Since 1 June heating degree days 0  
Since 1 July heating degree days 0  
Cooling Degree Days 20    
Month to date cooling degree days 497  
Year to date cooling degree days 1387  
Since 1 June cooling degree days 980  
Growing Degree Days 35 (Base 50)    
Moisture  
Dew Point 55 °F    
Average Humidity 37    
Maximum Humidity 50    
Minimum Humidity 23    
Precipitation  
Precipitation T in 0.00 in 0.33 in (1913)
Month to date precipitation T 0.01  
Year to date precipitation 2.28 7.85  
Since 1 July precipitation T 0.01  
Snow  
Snow 0.00 in - - ()
Month to date snowfall 0.0  
Since 1 June snowfall 0.0  
Since 1 July snowfall 0.0  
Snow Depth 0.00 in    
Sea Level Pressure  
Sea Level Pressure 29.85 in    
Wind  
Wind Speed 7 mph (WNW)    
Max Wind Speed 15 mph    
Max Gust Speed 20 mph    
Visibility 10 miles    
Events Rain , Thunderstorm    
T = Trace of Precipitation, MM = Missing Value Source: NWS Daily Summary

Daily Weather History Graph

Daily Weather History Graph

Search for Another Location

Airport or City:

Trip Planner

Search our weather history database for the weather conditions in past years. The results will help you decide how hot, cold, wet, or windy it might be!

Date:

Astronomy

Jul. 22, 2013 Rise Set
Actual Time 5:56 AM PDT 8:13 PM PDT
Civil Twilight 5:27 AM PDT 8:42 PM PDT
Nautical Twilight 4:51 AM PDT 9:18 PM PDT
Astronomical Twilight 4:12 AM PDT 9:57 PM PDT
Moon 8:05 PM PDT (7/22) 5:57 AM PDT (7/22)
Length of Visible Light 15h 15m
Length of Day
14h 16m
Full, 100% of the Moon is Illuminated
Jul 22
Full
Jul 29
Last Quarter
Aug 6
New
Aug 14
First Quarter
Aug 20
Full

Hourly Weather History & Observations

Time (PDT) Temp. Heat Index Dew Point Humidity Pressure Visibility Wind Dir Wind Speed Gust Speed Precip Events Conditions
12:53 AM 84.0 °F 82.5 °F 53.1 °F 34% 29.76 in 10.0 mi NW 15.0 mph - N/A   Overcast
1:53 AM 81.0 °F 80.5 °F 54.0 °F 39% 29.79 in 10.0 mi WNW 10.4 mph - N/A   Overcast
2:53 AM 80.1 °F 80.0 °F 54.0 °F 40% 29.79 in 10.0 mi West 9.2 mph - N/A   Overcast
3:53 AM 79.0 °F - 55.0 °F 44% 29.81 in 10.0 mi Calm Calm - N/A   Overcast
4:53 AM 79.0 °F - 55.0 °F 44% 29.82 in 10.0 mi WSW 6.9 mph - N/A   Overcast
5:53 AM 75.9 °F - 55.0 °F 48% 29.83 in 10.0 mi WNW 11.5 mph - N/A   Overcast
6:53 AM 75.9 °F - 54.0 °F 46% 29.85 in 10.0 mi WNW 11.5 mph - N/A   Overcast
7:53 AM 75.9 °F - 54.0 °F 46% 29.86 in 10.0 mi NW 9.2 mph - N/A   Overcast
8:53 AM 78.1 °F - 54.0 °F 43% 29.86 in 10.0 mi WNW 8.1 mph - N/A   Overcast
9:53 AM 81.0 °F - 52.0 °F 36% 29.88 in 10.0 mi Calm Calm - N/A   Overcast
10:53 AM 84.9 °F - 52.0 °F 32% 29.89 in 10.0 mi WNW 13.8 mph - N/A   Overcast
11:53 AM 88.0 °F 85.7 °F 53.1 °F 30% 29.89 in 10.0 mi WNW 8.1 mph - N/A   Overcast
12:53 PM 90.0 °F 87.7 °F 54.0 °F 29% 29.88 in 10.0 mi Variable 5.8 mph - N/A   Mostly Cloudy
1:53 PM 91.0 °F 88.5 °F 53.1 °F 27% 29.87 in 10.0 mi West 5.8 mph - N/A   Mostly Cloudy
2:53 PM 95.0 °F 92.5 °F 53.1 °F 24% 29.86 in 10.0 mi WNW 11.5 mph - N/A   Mostly Cloudy
3:53 PM 93.9 °F - 50.0 °F 22% 29.87 in 10.0 mi WNW 8.1 mph - N/A   Mostly Cloudy
4:53 PM 93.0 °F - 51.1 °F 24% 29.85 in 10.0 mi NNW 10.4 mph - N/A   Mostly Cloudy
5:19 PM 91.4 °F 89.4 °F 55.4 °F 29% 29.86 in 10.0 mi NW 12.7 mph - N/A   Mostly Cloudy
5:20 PM 91.4 °F 89.4 °F 55.4 °F 29% 29.85 in 10.0 mi NW 13.8 mph - N/A   Mostly Cloudy
5:24 PM 91.4 °F 89.4 °F 55.4 °F 29% 29.85 in 9.0 mi NW 12.7 mph - N/A Thunderstorm Thunderstorm
5:53 PM 87.1 °F 87.8 °F 63.0 °F 44% 29.83 in 10.0 mi WNW 9.2 mph - 0.00 in Rain , Thunderstorm Light Thunderstorms and Rain
6:15 PM 87.8 °F 87.6 °F 60.8 °F 40% 29.84 in 10.0 mi WSW 3.5 mph - N/A Rain Light Rain
6:53 PM 88.0 °F 87.9 °F 61.0 °F 40% 29.86 in 10.0 mi NE 4.6 mph - N/A   Mostly Cloudy
7:53 PM 88.0 °F 86.7 °F 57.0 °F 35% 29.82 in 10.0 mi WSW 12.7 mph - N/A   Mostly Cloudy
8:53 PM 88.0 °F 86.1 °F 55.0 °F 32% 29.86 in 10.0 mi Calm Calm - N/A   Mostly Cloudy
9:53 PM 84.9 °F 84.2 °F 57.9 °F 40% 29.88 in 10.0 mi Calm Calm - N/A   Mostly Cloudy
10:53 PM 84.0 °F 83.5 °F 57.9 °F 41% 29.88 in 10.0 mi NNW 10.4 mph - N/A   Mostly Cloudy
11:53 PM 82.0 °F 82.1 °F 59.0 °F 45% 29.87 in 10.0 mi NW 3.5 mph - N/A   Overcast